sat.trackr.live / text

‹ back to catalog

STARLINK-5948

NORAD 55991 · 2023-042F

PAYLOAD ACTIVE UNKNOWN

§ Identity

Operator
Country
US
Launch date
2023-03-24
Launch site
AFETR
Launch vehicle
Mass (kg)
RCS (m²)

Purposes: comms

External: N2YO · Heavens-Above · Gunter

§ Orbital elements

Epoch: 2026-05-24T21:22:30.203904Z

Period
94.27 min
Inclination
43.0062°
Eccentricity
0.0001704
Mean motion
15.27571433 rev/d
Perigee alt
481.9 km
Apogee alt
484.2 km
Semi-major
6,861.2 km
B*
-2.2004e-6
RAAN
345.8364°
Arg perigee
268.2172°
Mean anomaly
91.8485°
Rev number
17,456

§ Raw data

STARLINK-59481 55991U 23042F   26144.89062736 -.00000323  00000+0 -22004-5 0  99902 55991  43.0062 345.8364 0001704 268.2172  91.8485 15.27571433174565

JSON: /api/v1/satellites/55991 · /tle

For live sub-satellite position, see the globe view (requires WebGL).

§ Visibility from observer

Set your observer location to see the next 7 days of passes ≥ 10°. The values pass through the URL so the page stays shareable.

No JS? Fill the form by hand. The geolocation button needs JavaScript.